Погода в Каменском

Россия / Саратовская область     50°53′10″N   45°29′14″E
темп.,
°C
ветер,
м/с
пор.,
м/с
влажн.,
%
обл.,
%
осадки,
мм/ч
давл.,
гПа
погр.,
м
20 июня, вс
вс2001:00+16св22710 0.0 102413
04:00+15св22730 0.0 102414
07:00+18всв24720 0.0 1024116
10:00+23в45550 0.0 1024513
13:00+26в44460 0.0 1023948
16:00+27в34440 0.0 10221088
19:00+25св33590 0.0 1022166
22:00+20св22620 0.0 102216
21 июня, пн
пн2101:00+19всв33685 0.0 102228
04:00+18в337669 0.0 102239
07:00+20в367527 0.0 1022171
10:00+25в4561100 0.0 1023517
13:00+28в4450100 0.0 10221073
16:00+29в344493 0.0 10211377
19:00+26св34638 0.0 1021187
22:00+22св33705 0.0 102137
22 июня, вт
вт2201:00+21св45745 0.0 102170
04:00+19всв35814 0.0 102268
07:00+22всв35770 0.0 1021131
10:00+27вюв564561 0.0 1022448
13:00+30вюв5739100 0.0 10221036
16:00+31вюв56391 0.0 10211812
19:00+28в48550 0.0 1021287
22:00+24в4857100 0.0 1021120
23 июня, ср
ср2301:00+22вюв355510 0.0 102168
04:00+21вюв34571 0.0 102147
07:00+22в36633 0.0 1021131
10:00+27в46474 0.0 1021433
13:00+30в45380 0.0 10211263
16:00+31всв333618 0.0 10211842
19:00+28ссв355543 0.0 1020168
22:00+24св3355100 0.0 102034
24 июня, чт
чт2401:00+22св335933 0.0 102025
04:00+21св33695 0.0 102024
07:00+24ссв22664 0.0 102083
10:00+29ссв33515 0.0 1020636
13:00+30св33435 0.0 10191877
16:00+31св444416 0.0 10192116
19:00+29св24535 0.0 1018343
22:00+24св47680 0.0 1019123